Regional Weather Roundup
Issued by NWS Wakefield, VA

Home | Current Version | Previous Version | Text Only | Print | Product List | Glossary Off
Versions: 1 2 3 4 5 6 7 8 9 10 11 12 13 14 15 16 17 18 19 20 21 22 23 24 25 26 27 28 29 30 31 32 33 34 35 36 37 38 39 40 41 42 43 44 45 46 47 48 49 50

000
ASUS41 KAKQ 200815
RWRAKQ

REGIONAL WEATHER ROUNDUP
NATIONAL WEATHER SERVICE WAKEFIELD VA
400 AM EDT FRI APR 20 2018

Note: "fair" indicates few or no clouds below 12,000 feet with no
significant weather and/or obstructions to visibility. * = Denotes
station may not report precipitation (e.g., rain,snow,etc.),
thunder or fog.

VAZ042-051-052>054-056-200900-
NORTHERN VIRGINIA

CITY           SKY/WX    TMP DP  RH WIND       PRES   REMARKS
WASH NATIONAL  FAIR      40  21  46 NW12      30.23R
DULLES         FAIR      38  24  57 NW13      30.22R
FORT BELVOIR   FAIR      40  21  47 NW12      30.22R
QUANTICO       FAIR      42  27  55 NE5       30.25R
FREDERICKSBRG* FAIR      37  31  78 N9        30.22R
STAFFORD*      FAIR      34  29  81 NW10      30.26R
WARRENTON      FAIR      38  22  52 N8        30.23R
CULPEPER*      FAIR      40  22  48 NE3       30.24R
MANASSAS*      FAIR      38  23  55 N10       30.24R
LEESBURG*      FAIR      37  28  70 N14       30.24R
WINCHESTER     FAIR      36  21  55 NW7       30.25R
FRONT ROYAL*   FAIR      37  21  52 NW6       30.24R
LURAY*         FAIR      41  18  38 NW5       30.23R
$$

VAZ048-049-060>072-079>083-200900-
CENTRAL AND SOUTH CENTRAL VIRGINIA

CITY           SKY/WX    TMP DP  RH WIND       PRES   REMARKS
RICHMOND       FAIR      36  29  75 CALM      30.21R
CHESTERFIELD*  FAIR      35  26  69 CALM      30.22R
PETERSBURG*    FAIR      30  27  86 SW6       30.23R
HANOVER        FAIR      37  27  67 NW3       30.23R
TAPPAHANNOCK*  FAIR      37  29  73 W3        30.22R
QUINTON*       FAIR      33  32  96 S5        30.21R
CHARLOTTSVILLE FAIR      37  26  64 CALM      30.22R
GORDONSVILLE*  FAIR      31  29  90 CALM      30.22R
ORANGE*        FAIR      32  27  80 CALM      30.21R
LOUISA*        FAIR      33  25  72 S5        30.26R
BUMPASS*       FAIR      33  26  77 CALM      30.22R
FARMVILLE*     FAIR      40  27  59 CALM      30.22R
CREWE*         FAIR      32  31  94 W3        30.22R
FORT PICKETT*  FAIR      35  27  71 W3        30.23R
CHASE CITY*    FAIR      34  30  86 CALM      30.24R
CLARKSVILLE*   FAIR      37  30  75 CALM      30.24S
SOUTH HILL*    FAIR      34  30  83 CALM      30.29S
LAWRENCEVILLE* FAIR      37  28  69 CALM      30.23R
EMPORIA*       FAIR      36  30  80 W3        30.25R
$$

VAZ088>098-200900-
SOUTHEAST VIRGINIA

CITY           SKY/WX    TMP DP  RH WIND       PRES   REMARKS
NORFOLK        FAIR      46  28  49 VRB3      30.20R
VIRGINIA BEACH FAIR      45  29  53 NW10      30.19R
NORFOLK NAVAL  FAIR      44  27  51 NW9       30.22R
WEST POINT*    FAIR      32  29  89 CALM      30.23R
SALUDA*        FAIR      43  31  63 NW9       30.20R
NEWPORT NEWS   FAIR      38  28  67 NW5       30.20
LANGLEY AFB    FAIR      40  28  61 W3        30.20R
FORT EUSTIS    FAIR      44  32  61 W6        30.18R
WILLIAMSBURG*  FAIR      37  28  70 CALM      30.21S
HR EXEC AP*    FAIR      33  30  88 W5        30.22R
FRANKLIN*      FAIR      35  32  88 CALM      30.23R
US460-WAKEFLD  FAIR      35  28  75 CALM      30.22R
$$

VAZ020-022-025-037-045-200900-
WEST CENTRAL AND SOUTHWEST VIRGINIA

CITY           SKY/WX    TMP DP  RH WIND       PRES   REMARKS
STAUNTON*      FAIR      40  20  43 NW13      30.24R
WAYNESBORO*    FAIR      38  25  60 CALM      30.21R
HOT SPRINGS VA FAIR      32  23  70 NW16G23   30.15R WCI  21
LYNCHBURG      FAIR      33  26  75 CALM      30.23R
DANVILLE       FAIR      33  29  85 W6        30.25S
SOUTH BOSTON*  FAIR      35  28  75 S3        30.25R
MARTINSVILLE   FAIR      30  27  86 NW3       30.28S
ROANOKE        FAIR      41  27  57 NW5       30.25R
BLACKSBURG     FAIR      38  28  68 NW8       30.26R
DUBLIN*        FAIR      41  26  53 W9G17     30.25S
MARION*        FAIR      35  28  78 W10       30.28S
HILLSVILLE*    FAIR      36  26  65 NW16      30.20S
RICHLANDS*     FAIR      33  10  37 W6        30.28S
WISE*          FAIR      34  28  80 W7        30.29S
ABINGDON*      FAIR      34  29  84 CALM      30.30S
$$

MDZ021>025-VAZ099-100-200900-
SOUTHERN MARYLAND AND THE DELMARVA PENINSULA

CITY           SKY/WX    TMP DP  RH WIND       PRES   REMARKS
PATUXENT RIVER FAIR      44  25  47 N14       30.20R
BAY BRIDGE APT FAIR      39  23  52 NW15G24   30.21R
LEONARDTOWN    FAIR      37  27  65 W6        30.22R
DOVER          MOCLDY    39  24  54 W10       30.15R
GEORGETOWN     FAIR      37  27  67 CALM      30.16R
EASTON         FAIR      40  23  50 NW12G18   30.23R
CAMBRIDGE        N/A    N/A N/A N/A MISG        N/A
SALISBURY      FAIR      39  26  59 NW8       30.16R
TANGIER        FAIR      46  32  57 NW28      30.18R
OCEAN CITY     FAIR      36  27  69 W3        30.16R
WALLOPS ISLAND FAIR      40  26  57 NW7       30.17R
ACCOMACK*      FAIR      44  27  52 NW12      30.17R
$$

NCZ012>017-030>032-200900-
NORTH CENTRAL AND EASTERN NORTH CAROLINA

CITY           SKY/WX    TMP DP  RH WIND       PRES   REMARKS
ROANOKE RAPIDS FAIR      36  34  93 SW3       30.24R
RALEIGH        FAIR      39  30  70 CALM      30.26R
ELIZABETH CITY FAIR      39  31  72 W7        30.21R
AHOSKIE*       FAIR      36  31  84 CALM      30.24R
EDENTON*       FAIR      41  32  70 CALM      30.23R
CURRITUCK*     NOT AVBL
KILL DEVIL HLS FAIR      46  27  47 N13G23    30.19S
MANTEO         FAIR      46  28  48 N20G26    30.21S
CAPE HATTERAS  FAIR      49  33  54 N17G26    30.20R
TARBORO*       NOT AVBL
GOLDSBORO      FAIR      44  30  56 CALM      30.24R
WASHINGTON     FAIR      43  30  61 CALM      30.24S
GREENVILLE     FAIR      41  32  70 CALM      30.25R
NEW BERN       FAIR      45  33  63 N12       30.25R
WILMINGTON     FAIR      47  31  53 N10       30.22R
$$

VAZ048-200900-
ELSEWHERE

CITY           SKY/WX    TMP DP  RH WIND       PRES   REMARKS
HARRISBURG PA  MOCLDY    38  22  52 NW15      30.16R
BALTIMORE      FAIR      37  23  56 W9        30.20R
ANNAPOLIS      FAIR      42  25  50 NW8G21    30.20R
ANDREWS AFB    FAIR      38  21  50 NW12      30.20R
PHILADELPHIA   FAIR      38  22  52 NW14      30.15R
HENDERSON NC   FAIR      35  27  72 CALM      30.24S
GREENSBORO     FAIR      39  27  62 CALM      30.24R
ROCKY MOUNT    FAIR      37  32  82 CALM      30.25R
$$

VAZ100-200900-
MARINE

STATION/POSITION TIME  TEMP    WIND        PRES    WAVE   SWELL
                       AIR SEA DIR/SP/G            HT/PER HT/PER
                 (UTC) (F)     (DEG/KT/KT) (MB)    (FT/S) (FT/S)
BRANDYWINE LGT   0742   43     320/ 16/ 23 1020.7R
CAPE MAY NJ      0748   43 48  360/  3/ 11 1019.7R
LEWES DE         0742   43 48  310/ 21/ 25 1020.7R
15NM E FENWICK I 0750   42 45  310/ 23/ 27 1020.1R   4/ 5   2/ 8
OCEAN-CITY-INLET 0742   40 48  330/  6/  9 1021.3S
WACHAPREAGUE VA  0742   44 51  310/  5/ 12 1021.6R
THOMAS POINT MD  0800   40 49  310/ 12/ 14 1023.9R
GOOSES REEF MD   0800   43     360/ 19/ 23 1023.0
COVE POINT MD    0742   43     360/ 20/ 24 1023.2R
SOLOMONS ISLAND  0742   43 51  340/  9/ 14 1022.4R
BISHOPS HEAD MD  0742   42 49  320/ 15/ 22 1022.6R
PINEY POINT MD   0742          360/ 14/ 17   N/A
POTOMAC MD       0800   44 52  340/ 17/ 21 1023.5    2/ 3
CAMBRIDGE MD     0742   42 52              1022.7R
LEWISETTA VA     0742   46 53  340/ 13/ 18 1022.6R
RAPPAHANNOCK LGT 0742          310/ 19/ 25 1022.5R
YORK RVR RNG VA  0742   45     320/ 10/ 12 1023.0R
YORKTOWN VA      0742   44 56  290/  6/  8 1022.3R
DOMINION TERM VA 0742   46      10/  3/  5 1022.9R
KIPTOPEKE VA     0742      53  330/ 23/ 26   N/A
CAPE HENRY VA    0742   47     330/ 22/ 25   N/A
WILLOUBY STN VA  0742   45     310/ 10/ 11 1022.6R
S CRANEY ISL VA  0742   45     340/  7/ 10 1022.4R
CAPE HENRY BUOY  0800      50                N/A     4/ 6   2/15
64NM E OF VA BCH 0750   47 49  340/ 17/ 19 1021.8R   8/ 7   3/15
DUCK PIER NC     0742   48 51  350/ 24/ 29 1021.4R
44100 DUCK FRF   0745      50                N/A     7/ 6   2/14
44056 DUCK FRF   0800      49                N/A     7/ 6
OREGON INLET NC  0742   46 59  350/ 14/ 19 1022.5R
HATTERAS NC      0742   50 63  350/ 25/ 30 1022.4R
DIAMOND SHLS NC  0800   51 67  360/ 25/ 33 1022.6
CAPE LOOKOUT NC  0800           10/ 21/ 30 1023.1R
$$



USA.gov is the U.S. government's official web portal to all federal, state and local government web resources and services.